FW7308 Weather Reports


Display with metric or nautical units.
time (UTC)temp
F
wind
direction
speed
MPH
gust
MPH
rain 1hr
in
rain 24hr
in
rain mn
in
humidity
%
barometer
mb
20260901183725 61 321 3.0 3.0 0.00 0.00 0.46 99 1020.5
20260901183225 61 337 1.0 2.0 0.00 0.00 0.46 99 1020.3
20260901182724 61 0.0 0.0 0.00 0.00 0.46 99 1020.5
20260901182224 61 329 1.0 2.0 0.00 0.00 0.46 99 1020.3
20260901181722 61 313 1.0 2.0 0.00 0.00 0.46 99 1020.3
20260901181223 61 330 0.0 1.0 0.00 0.00 0.46 99 1020.3
20260901180722 61 0.0 0.0 0.00 0.00 0.45 99 1020.3
20260901180222 61 322 1.0 2.0 0.00 0.00 0.45 99 1020.3
20260901175720 61 328 0.0 1.0 0.00 0.00 0.45 99 1020.3
20260901175220 61 307 2.0 2.0 0.00 0.00 0.45 99 1020.3
20260901174721 61 322 1.0 2.0 0.00 0.00 0.45 99 1020.3
20260901174220 61 326 1.0 1.0 0.00 0.00 0.44 99 1020.3
20260901173721 60 0.0 0.0 0.00 0.00 0.44 99 1020.3
20260901173218 61 326 0.0 1.0 0.00 0.00 0.44 99 1020.3
20260901172720 60 325 1.0 2.0 0.00 0.00 0.43 99 1020.3
20260901172219 60 321 1.0 1.0 0.00 0.00 0.43 99 1020.3
20260901171718 60 322 2.0 2.0 0.00 0.00 0.42 99 1020.3
20260901171219 60 333 0.0 1.0 0.00 0.00 0.41 99 1020.3
20260901170718 60 318 2.0 3.0 0.00 0.00 0.41 99 1020.3
20260901170218 60 323 3.0 5.0 0.00 0.00 0.41 99 1020.3
20260901155717 60 292 1.0 2.0 0.00 0.00 0.39 99 1019.8
20260901155246 60 0.0 0.0 0.00 0.00 0.38 99 1020.0
20260901154745 60 0.0 0.0 0.00 0.00 0.37 99 1020.0
20260901154247 60 324 1.0 2.0 0.00 0.00 0.36 99 1020.3
20260901153746 60 332 2.0 2.0 0.00 0.00 0.35 99 1020.3
20260901153245 60 0.0 0.0 0.00 0.00 0.35 99 1020.0
20260901152845 60 330 1.0 2.0 0.00 0.00 0.34 99 1020.3
20260901152243 60 322 1.0 2.0 0.00 0.00 0.33 99 1020.3
20260901151745 60 323 1.0 2.0 0.00 0.00 0.33 99 1020.3
20260901151243 60 334 1.0 1.0 0.00 0.00 0.32 99 1020.3
20260901150747 59 328 1.0 2.0 0.00 0.00 0.31 99 1020.3
20260901150242 60 321 2.0 3.0 0.00 0.00 0.30 99 1020.3
20260901145743 60 312 2.0 2.0 0.00 0.00 0.30 99 1020.0
20260901145242 60 0.0 0.0 0.00 0.00 0.30 99 1020.0
20260901144741 60 324 0.0 1.0 0.00 0.00 0.30 99 1020.0
20260901144341 60 322 1.0 2.0 0.00 0.00 0.30 99 1020.0
20260901143743 60 329 0.0 1.0 0.00 0.00 0.30 99 1020.0
20260901143241 60 318 1.0 1.0 0.00 0.00 0.30 99 1020.0
20260901142742 60 323 1.0 1.0 0.00 0.00 0.30 99 1020.0
20260901141740 60 323 0.0 1.0 0.00 0.00 0.30 99 1020.0
20260901141241 60 325 1.0 2.0 0.00 0.00 0.30 99 1020.0
20260901140739 59 0.0 0.0 0.00 0.00 0.30 99 1020.0
20260901140240 59 323 1.0 2.0 0.00 0.00 0.30 99 1020.1
20260901135740 59 331 2.0 2.0 0.00 0.00 0.30 99 1020.3
20260901135238 59 323 1.0 2.0 0.00 0.00 0.30 99 1020.3
20260901134738 59 321 1.0 2.0 0.00 0.00 0.30 99 1020.3
20260901134237 59 321 1.0 2.0 0.00 0.00 0.30 99 1020.3
20260901133738 59 322 1.0 1.0 0.00 0.00 0.30 99 1020.3
20260901133238 60 326 1.0 1.0 0.00 0.00 0.30 99 1020.3
20260901132738 60 324 1.0 1.0 0.00 0.00 0.30 99 1020.3
20260901132235 60 316 1.0 2.0 0.00 0.00 0.30 99 1020.3
20260901131735 60 321 1.0 1.0 0.00 0.00 0.30 99 1020.3
20260901131236 60 338 1.0 1.0 0.00 0.00 0.30 99 1020.3
20260901130837 60 304 1.0 2.0 0.00 0.00 0.30 99 1020.3
20260901130236 60 323 2.0 5.0 0.00 0.00 0.30 99 1020.7
20260901125739 60 327 1.0 1.0 0.00 0.00 0.30 99 1020.5
20260901125235 61 328 0.0 1.0 0.00 0.00 0.30 99 1020.3
20260901124839 61 327 1.0 1.0 0.00 0.00 0.30 99 1020.7
20260901124233 60 0.0 0.0 0.00 0.00 0.30 99 1020.5
20260901123732 60 327 0.0 1.0 0.00 0.00 0.30 99 1020.7
20260901123237 60 0.0 0.0 0.00 0.00 0.30 99 1020.7
20260901122737 60 321 1.0 1.0 0.00 0.00 0.30 99 1020.7
20260901121739 60 331 0.0 1.0 0.00 0.00 0.29 99 1020.7
20260901121238 60 0.0 0.0 0.00 0.00 0.29 99 1020.7
20260901120731 60 0.0 0.0 0.00 0.00 0.29 99 1020.7
20260901120231 60 323 0.0 1.0 0.00 0.00 0.29 99 1020.7
20260901115731 60 322 1.0 1.0 0.00 0.00 0.28 99 1020.7
20260901115331 60 333 0.0 2.0 0.00 0.00 0.27 99 1020.7
20260901114229 60 326 0.0 1.0 0.00 0.00 0.23 99 1020.7
20260901113728 60 0.0 0.0 0.00 0.00 0.20 99 1020.7
20260901113230 60 0.0 0.0 0.00 0.00 0.18 99 1020.7
20260901112731 60 323 1.0 1.0 0.00 0.00 0.16 99 1020.7
20260901112328 60 320 2.0 2.0 0.00 0.00 0.14 99 1020.7
20260901111728 60 322 1.0 2.0 0.00 0.00 0.13 99 1020.7
20260901111229 61 325 1.0 1.0 0.00 0.00 0.10 99 1020.7
20260901110728 61 321 1.0 2.0 0.00 0.00 0.08 99 1020.7
20260901110228 61 327 2.0 2.0 0.00 0.00 0.05 99 1020.7
20260901105727 61 323 1.0 1.0 0.00 0.00 0.03 99 1020.5
20260901105226 61 320 1.0 1.0 0.00 0.00 0.01 99 1020.3
20260901104226 62 324 2.0 2.0 0.00 0.00 0.00 99 1020.5
20260901103727 62 329 0.0 1.0 0.00 0.00 0.00 99 1020.3
20260901103226 62 317 3.0 5.0 0.00 0.00 0.00 99 1020.3
20260901102726 62 0.0 0.0 0.00 0.00 0.00 99 1020.0
20260901102223 62 0.0 0.0 0.00 0.00 0.00 99 1020.0
20260901101724 62 326 2.0 2.0 0.00 0.00 0.00 99 1020.3
20260901101224 62 0.0 0.0 0.00 0.00 0.00 99 1020.0
20260901100723 62 335 1.0 1.0 0.00 0.00 0.00 99 1019.8
20260901100224 62 319 0.0 1.0 0.00 0.00 0.00 99 1019.6
20260901095723 62 332 0.0 1.0 0.00 0.00 0.00 99 1020.0
20260901095222 62 0.0 0.0 0.00 0.00 0.00 99 1019.6
20260901094722 62 0.0 0.0 0.00 0.00 0.00 99 1019.6
20260901094221 62 328 0.0 1.0 0.00 0.00 0.00 99 1019.6
20260901093722 62 322 2.0 2.0 0.00 0.00 0.00 99 1019.6
20260901093221 62 312 2.0 2.0 0.00 0.00 0.00 99 1019.8
20260901092720 63 334 1.0 1.0 0.00 0.00 0.00 99 1019.6
20260901092220 63 0.0 0.0 0.00 0.00 0.00 99 1019.6
20260901091721 63 0.0 0.0 0.00 0.00 0.00 99 1019.8
20260901091220 63 0.0 0.0 0.00 0.00 0.00 99 1020.0
20260901090719 63 0.0 0.0 0.00 0.00 0.00 99 1020.0
20260901090218 63 0.0 0.0 0.00 0.00 0.00 99 1020.0
20260901085719 63 0.0 0.0 0.00 0.00 0.00 99 1020.0
20260901085219 63 0.0 0.0 0.00 0.00 0.00 99 1020.0
20260901084219 63 0.0 0.0 0.00 0.00 0.00 99 1020.0
20260901083718 63 0.0 0.0 0.00 0.00 0.00 99 1020.0
20260901083218 63 0.0 0.0 0.00 0.00 0.00 99 1020.0
20260901082717 63 0.0 0.0 0.00 0.00 0.00 99 1020.1
20260901082318 63 0.0 0.0 0.00 0.00 0.00 99 1020.0
20260901081718 63 0.0 0.0 0.00 0.00 0.00 99 1020.0
20260901081319 63 0.0 0.0 0.00 0.00 0.00 99 1020.0
20260901080746 63 0.0 0.0 0.00 0.00 0.00 99 1020.0
20260901080244 63 318 1.0 1.0 0.00 0.00 0.00 99 1020.0
20260901075745 64 0.0 0.0 0.00 0.00 0.00 99 1019.8
20260901075245 64 334 1.0 1.0 0.00 0.00 0.00 99 1020.0
20260901074744 64 333 0.0 1.0 0.00 0.00 0.00 99 1019.6
20260901074243 64 0.0 0.0 0.00 0.00 0.00 99 1020.0
20260901073744 64 331 1.0 1.0 0.00 0.00 0.00 99 1020.0
20260901073243 64 331 0.0 1.0 0.00 0.00 0.00 99 1020.0
20260901072743 64 0.0 0.0 0.00 0.00 0.00 99 1020.0
20260901071741 64 324 0.0 1.0 0.00 0.00 0.00 99 1020.0
20260901071244 64 331 1.0 1.0 0.00 0.00 0.00 99 1020.0
20260901070842 64 350 1.0 2.0 0.00 0.00 0.00 99 1020.0
20260901070341 64 334 1.0 1.0 0.00 0.00 0.00 99 1020.3
20260901065840 64 343 0.0 1.0 0.00 0.00 0.00 99 1020.7
20260901064239 64 0.0 0.0 0.00 0.00 0.00 99 1020.7
20260901063739 64 0.0 0.0 0.00 0.00 0.00 99 1020.5
20260901053236 64 330 1.0 1.0 0.00 0.00 0.00 99 1020.7
20260901052735 64 331 1.0 1.0 0.00 0.00 0.00 99 1020.7
20260901052236 64 0.0 0.0 0.00 0.00 0.00 99 1021.0
20260901051734 64 336 1.0 1.0 0.00 0.00 0.00 99 1020.8
20260901051233 64 328 0.0 1.0 0.00 0.00 0.00 99 1021.0
20260901050734 64 0.0 0.0 0.00 0.00 0.00 99 1020.7
20260901050233 64 330 1.0 1.0 0.00 0.00 0.00 99 1021.0
20260901045732 64 0.0 0.0 0.00 0.00 0.00 99 1021.0
20260901045232 64 0.0 0.0 0.00 0.00 0.00 99 1021.0
20260901044733 64 0.0 0.0 0.00 0.00 0.00 99 1020.7
20260901044232 64 0.0 0.0 0.00 0.00 0.00 99 1020.7
20260901043731 64 0.0 0.0 0.00 0.00 0.00 98 1020.7
20260901043232 64 326 1.0 1.0 0.00 0.00 0.00 98 1020.7
20260901042732 64 330 1.0 1.0 0.00 0.00 0.00 99 1020.7
20260901042231 64 331 1.0 1.0 0.00 0.00 0.00 98 1020.7
20260901041730 64 327 1.0 1.0 0.00 0.00 0.00 98 1020.7
20260901041229 64 0.0 0.0 0.00 0.00 0.00 98 1020.7
20260901040230 65 329 0.0 1.0 0.00 0.00 0.00 98 1020.7
20260901035728 65 330 1.0 1.0 0.00 0.00 0.00 98 1020.7
20260901035228 64 0.0 0.0 0.00 0.00 0.00 98 1020.7
20260901034729 64 0.0 0.0 0.00 0.00 0.00 98 1020.8
20260901034230 65 0.0 0.0 0.00 0.00 0.00 98 1020.8
20260901033728 65 0.0 0.0 0.00 0.00 0.00 98 1020.7
20260901033226 65 0.0 0.0 0.00 0.00 0.00 98 1020.7
20260901032725 65 0.0 0.0 0.00 0.00 0.00 98 1021.0
20260901032227 65 0.0 0.0 0.00 0.00 0.00 98 1020.7
20260901031726 65 0.0 0.0 0.00 0.00 0.00 98 1021.0
20260901031225 65 0.0 0.0 0.00 0.00 0.00 98 1020.8
20260901030726 65 0.0 0.0 0.00 0.00 0.00 98 1021.0
20260901030225 65 0.0 0.0 0.00 0.00 0.00 97 1021.0
20260901025725 65 0.0 0.0 0.00 0.00 0.00 97 1021.0
20260901025224 65 0.0 0.0 0.00 0.00 0.00 97 1021.0
20260901024725 65 0.0 0.0 0.00 0.00 0.00 97 1021.0
20260901024224 65 0.0 0.0 0.00 0.00 0.00 96 1021.0
20260901023723 65 0.0 0.0 0.00 0.00 0.00 96 1021.0
20260901023223 65 326 1.0 1.0 0.00 0.00 0.00 96 1021.0
20260901022724 65 0.0 0.0 0.00 0.00 0.00 96 1020.7
20260901022223 65 332 0.0 1.0 0.00 0.00 0.00 96 1020.8
20260901021722 65 334 0.0 1.0 0.00 0.00 0.00 97 1020.7
20260901021223 65 0.0 0.0 0.00 0.00 0.00 97 1020.7
20260901020822 65 0.0 0.0 0.00 0.00 0.00 97 1020.7
20260901020222 65 0.0 0.0 0.00 0.00 0.00 97 1020.7
20260901015724 65 0.0 0.0 0.00 0.00 0.00 96 1021.0
20260901015220 65 327 0.0 1.0 0.00 0.00 0.00 96 1021.0
20260901014719 65 0.0 0.0 0.00 0.00 0.00 96 1021.0
20260901014221 65 0.0 0.0 0.00 0.00 0.00 96 1021.0
20260901013820 65 0.0 0.0 0.00 0.00 0.00 96 1021.0
20260901013219 65 0.0 0.0 0.00 0.00 0.00 96 1021.0
20260901012718 65 0.0 0.0 0.00 0.00 0.00 96 1021.0
20260901012220 65 0.0 0.0 0.00 0.00 0.00 96 1021.0
20260901011718 65 0.0 0.0 0.00 0.00 0.00 96 1021.0
20260901011217 65 0.0 0.0 0.00 0.00 0.00 95 1021.0
20260901010716 65 0.0 0.0 0.00 0.00 0.00 95 1021.0
20260901010218 66 0.0 0.0 0.00 0.00 0.00 94 1021.0
20260901005717 66 0.0 0.0 0.00 0.00 0.00 93 1020.7
20260901005216 66 0.0 0.0 0.00 0.00 0.00 93 1020.7
20260901004715 66 334 0.0 1.0 0.00 0.00 0.00 93 1020.8
20260901004246 66 333 0.0 1.0 0.00 0.00 0.00 93 1020.8
20260901003745 67 320 1.0 1.0 0.00 0.00 0.00 92 1021.0
20260901003245 67 352 1.0 2.0 0.00 0.00 0.00 92 1021.0
20260901002744 67 0.0 0.0 0.00 0.00 0.00 91 1021.0
20260901002245 67 0.0 0.0 0.00 0.00 0.00 91 1021.0
20260901001845 67 336 1.0 1.0 0.00 0.00 0.00 90 1021.0
20260901001244 67 334 2.0 2.0 0.00 0.00 0.00 91 1021.0
20260901000743 67 327 1.0 1.0 0.00 0.00 0.00 90 1021.0
20260901000244 67 331 0.0 1.0 0.00 0.00 0.00 90 1020.7
20260831235743 67 0.0 0.0 0.00 0.00 0.00 91 1020.8
20260831235242 67 0.0 0.0 0.00 0.00 0.00 91 1020.7
20260831234743 67 336 0.0 1.0 0.00 0.00 0.00 90 1020.7
20260831234242 67 0.0 0.0 0.00 0.00 0.00 90 1020.8
20260831233742 67 333 1.0 1.0 0.00 0.00 0.00 90 1020.7
20260831233241 68 0.0 0.0 0.00 0.00 0.00 89 1021.0
20260831232740 68 334 1.0 1.0 0.00 0.00 0.00 90 1020.8
20260831232242 68 339 1.0 1.0 0.00 0.00 0.00 89 1021.0
20260831231840 68 348 1.0 2.0 0.00 0.00 0.00 88 1021.0
20260831230739 69 5 2.0 3.0 0.00 0.00 0.00 86 1021.2
20260831230240 69 315 1.0 1.0 0.00 0.00 0.00 86 1021.4
20260831225739 69 0.0 0.0 0.00 0.00 0.00 86 1021.4
20260831225238 69 318 1.0 2.0 0.00 0.00 0.00 86 1021.4
20260831224737 69 331 1.0 1.0 0.00 0.00 0.00 86 1021.4
20260831224239 69 351 1.0 2.0 0.00 0.00 0.00 86 1021.4
20260831223738 70 300 1.0 1.0 0.00 0.00 0.00 84 1021.4
20260831223337 70 288 0.0 2.0 0.00 0.00 0.00 84 1021.4
20260831222737 70 324 1.0 1.0 0.00 0.00 0.00 82 1021.4
20260831222238 70 321 1.0 2.0 0.00 0.00 0.00 82 1021.4
20260831221737 70 32 2.0 3.0 0.00 0.00 0.00 82 1021.4
20260831220735 70 303 2.0 3.0 0.00 0.00 0.00 81 1021.7
20260831220237 71 328 0.0 1.0 0.00 0.00 0.00 81 1021.4
20260831215736 71 325 1.0 2.0 0.00 0.00 0.00 80 1021.4
20260831215236 71 270 1.0 3.0 0.00 0.00 0.00 80 1021.4
20260831214734 71 271 3.0 5.0 0.00 0.00 0.00 79 1021.4
20260831214235 72 263 3.0 5.0 0.00 0.00 0.00 78 1021.4
20260831213835 72 104 3.0 5.0 0.00 0.00 0.00 76 1021.0
20260831213234 73 165 6.0 8.0 0.00 0.00 0.00 75 1021.2
20260831212733 73 75 3.0 5.0 0.00 0.00 0.00 76 1021.4
20260831212237 72 137 2.0 5.0 0.00 0.00 0.00 76 1021.4
20260831211733 72 283 2.0 3.0 0.00 0.00 0.00 75 1021.4
20260831211232 72 181 4.0 5.0 0.00 0.00 0.00 74 1021.2
20260831210731 72 98 4.0 5.0 0.00 0.00 0.00 73 1021.4
20260831210233 72 181 3.0 5.0 0.00 0.00 0.00 74 1021.4
20260831205736 72 349 2.0 3.0 0.00 0.00 0.00 73 1021.4
20260831205231 73 19 3.0 3.0 0.00 0.00 0.00 72 1021.4
20260831204736 74 294 2.0 3.0 0.00 0.00 0.00 71 1021.4
20260831204240 74 98 6.0 8.0 0.00 0.00 0.00 72 1021.4
20260831203737 73 103 4.0 6.0 0.00 0.00 0.00 74 1021.4
20260831203336 73 163 3.0 3.0 0.00 0.00 0.00 73 1021.4
20260831202737 73 91 3.0 5.0 0.00 0.00 0.00 73 1021.4
20260831202336 74 230 2.0 3.0 0.00 0.00 0.00 73 1021.4
20260831201836 73 149 5.0 8.0 0.00 0.00 0.00 72 1021.4
20260831201333 74 162 9.0 10.0 0.00 0.00 0.00 72 1021.4
20260831200734 74 182 5.0 6.0 0.00 0.00 0.00 73 1021.5
20260831200227 76 163 7.0 9.0 0.00 0.00 0.00 70 1021.5
20260831195733 76 324 4.0 7.0 0.00 0.00 0.00 72 1021.4
20260831195227 76 133 6.0 14.0 0.00 0.00 0.00 70 1021.4
20260831194728 76 332 1.0 2.0 0.00 0.00 0.00 68 1021.7
20260831194226 74 62 3.0 6.0 0.00 0.00 0.00 70 1021.7
20260831193827 75 169 7.0 9.0 0.00 0.00 0.00 71 1021.7
20260831193226 75 173 5.0 7.0 0.00 0.00 0.00 69 1021.7
20260831192727 75 240 5.0 7.0 0.00 0.00 0.00 69 1021.9
20260831192228 74 14 3.0 5.0 0.00 0.00 0.00 70 1021.7
20260831191725 75 301 3.0 5.0 0.00 0.00 0.00 69 1021.7
20260831191225 76 170 6.0 9.0 0.00 0.00 0.00 69 1021.9
20260831190725 75 319 2.0 3.0 0.00 0.00 0.00 67 1022.1
20260831190223 75 224 7.0 11.0 0.00 0.00 0.00 67 1022.1
20260831185727 74 247 2.0 5.0 0.00 0.00 0.00 68 1022.1
20260831185324 74 192 5.0 7.0 0.00 0.00 0.00 67 1022.1
20260831184725 74 18 1.0 2.0 0.00 0.00 0.00 67 1022.1